Powrót do katalogu

HAWK-10C

AktywnyNaukaSSO
NORAD 60575·PAYLOAD·🇺🇸 United States

Wystrzelony Aug 16, 2024 z Vandenberg Space Force Base

Loading…

Następne Przeloty (najbliższe 24 godziny)

TLE

ŚwieżeSource: Space-Track

Epoka: Sep 14, 2026, 11:49 UTC

1 60575U 24149DM  26257.49271953  .00001633  00000-0  14791-3 0  9993
2 60575  97.6664 330.3604 0004911 110.6623 249.5126 14.96729555113340

Śledź HAWK-10C w czasie rzeczywistym z AllMySat

Download on the App Store